EW1998 Weather Reports


time (UTC)temp
C
wind
direction
speed
KPH
gust
KPH
rain 1hr
cm
rain 24hr
cm
rain mn
cm
humidity
%
barometer
mb
20260507233558 1 212 0.0 3.2 0.00 0.00 0.00 75 1020.0
20260507232201 1 212 0.0 3.2 0.00 0.00 0.00 75 1020.0
20260507231356 1 129 0.0 3.2 0.00 0.00 0.00 76 1019.8
20260507230650 1 129 0.0 3.2 0.00 0.00 0.00 76 1019.8
20260507225141 2 245 0.0 1.6 0.00 0.00 0.00 75 1019.6
20260507223630 2 146 0.0 1.6 0.00 0.00 0.00 74 1019.6
20260507223427 3 119 0.0 1.6 0.00 0.00 0.00 69 1019.4
20260507222242 2 246 0.0 1.6 0.00 0.00 0.00 72 1019.5
20260507220629 3 119 0.0 1.6 0.00 0.00 0.00 69 1019.4
20260507215822 3 269 0.0 3.2 0.00 0.00 0.00 67 1019.4
20260507215129 3 269 0.0 3.2 0.00 0.00 0.00 67 1019.4
20260507213602 4 275 0.0 3.2 0.00 0.00 0.00 68 1019.3
20260507212801 4 284 1.6 3.2 0.00 0.00 0.00 66 1019.2
20260507212102 4 284 1.6 3.2 0.00 0.00 0.00 66 1019.2
20260507211242 5 117 0.0 3.2 0.00 0.00 0.00 63 1019.0
20260507210800 5 117 0.0 3.2 0.00 0.00 0.00 63 1019.0
20260507205738 6 129 0.0 3.2 0.00 0.00 0.00 59 1018.9
20260507205029 6 129 0.0 3.2 0.00 0.00 0.00 59 1018.9
20260507204224 7 212 0.0 4.8 0.00 0.00 0.00 54 1018.7
20260507203740 7 212 0.0 4.8 0.00 0.00 0.00 54 1018.7
20260507202002 7 49 0.0 6.4 0.00 0.00 0.00 54 1018.5
20260507200501 8 57 0.0 4.8 0.00 0.00 0.00 47 1018.5
20260507195709 9 16 3.2 6.4 0.00 0.00 0.00 42 1018.2
20260507195004 9 16 3.2 6.4 0.00 0.00 0.00 42 1018.2
20260507193503 9 141 0.0 6.4 0.00 0.00 0.00 46 1018.2
20260507192728 11 12 3.2 9.7 0.00 0.00 0.00 40 1017.8
20260507191955 11 12 3.2 9.7 0.00 0.00 0.00 40 1017.8
20260507191144 11 346 0.0 16.1 0.00 0.00 0.00 38 1017.6
20260507190656 11 346 0.0 16.1 0.00 0.00 0.00 38 1017.6
20260507184931 12 190 1.6 14.5 0.00 0.00 0.00 36 1017.3
20260507183431 12 102 4.8 12.9 0.00 0.00 0.00 37 1017.2
20260507181931 13 175 6.4 14.5 0.00 0.00 0.00 36 1017.1
20260507181148 13 111 4.8 17.7 0.00 0.00 0.00 35 1016.9
20260507180429 13 111 4.8 17.7 0.00 0.00 0.00 35 1016.9
20260507174902 14 180 8.0 12.9 0.00 0.00 0.00 35 1016.7
20260507173403 15 126 3.2 22.5 0.00 0.00 0.00 35 1016.6
20260507171902 14 96 9.7 20.9 0.00 0.00 0.00 36 1016.5
20260507170401 15 130 9.7 20.9 0.00 0.00 0.00 34 1016.3
20260507164903 15 154 4.8 19.3 0.00 0.00 0.00 32 1016.3
20260507164050 16 187 0.0 8.0 0.00 0.00 0.00 26 1016.2
20260507163354 16 187 0.0 8.0 0.00 0.00 0.00 26 1016.2
20260507161850 16 61 3.2 8.0 0.00 0.00 0.00 28 1016.1
20260507161035 16 1 1.6 9.7 0.00 0.00 0.00 29 1016.3
20260507160541 16 1 1.6 9.7 0.00 0.00 0.00 29 1016.3
20260507160238 16 87 4.8 11.3 0.00 0.00 0.00 29 1016.3
20260507154830 16 87 4.8 11.3 0.00 0.00 0.00 29 1016.3
20260507153329 16 114 9.7 14.5 0.00 0.00 0.00 28 1016.4
20260507152521 15 91 8.0 14.5 0.00 0.00 0.00 28 1016.3
20260507151822 15 91 8.0 14.5 0.00 0.00 0.00 28 1016.3
20260507150302 16 80 3.2 11.3 0.00 0.00 0.00 29 1016.2
20260507144801 15 107 6.4 8.0 0.00 0.00 0.00 31 1016.4
20260507143251 16 19 3.2 12.9 0.00 0.00 0.00 29 1016.4
20260507142441 16 214 0.0 17.7 0.00 0.00 0.00 32 1016.5
20260507141954 16 214 0.0 17.7 0.00 0.00 0.00 32 1016.5
20260507140936 15 19 3.2 11.3 0.00 0.00 0.00 31 1016.4
20260507140229 15 19 3.2 11.3 0.00 0.00 0.00 31 1016.4
20260507134730 15 12 4.8 8.0 0.00 0.00 0.00 31 1016.5
20260507133926 15 8 1.6 8.0 0.00 0.00 0.00 31 1016.5
20260507133230 15 8 1.6 8.0 0.00 0.00 0.00 31 1016.5
20260507131727 15 197 3.2 8.0 0.00 0.00 0.00 29 1016.6
20260507130202 14 89 4.8 12.9 0.00 0.00 0.00 29 1016.6
20260507124702 14 91 1.6 14.5 0.00 0.00 0.00 29 1016.7
20260507123852 15 178 4.8 14.5 0.00 0.00 0.00 31 1016.7
20260507123155 15 178 4.8 14.5 0.00 0.00 0.00 31 1016.7
20260507122333 15 181 0.0 16.1 0.00 0.00 0.00 31 1016.8
20260507121630 15 181 0.0 16.1 0.00 0.00 0.00 31 1016.8
20260507120130 14 160 8.0 17.7 0.00 0.00 0.00 32 1016.8
20260507114629 14 149 3.2 16.1 0.00 0.00 0.00 34 1016.8
20260507113129 13 189 6.4 12.9 0.00 0.00 0.00 32 1016.8
20260507113019 14 298 0.0 9.7 0.00 0.00 0.00 34 1016.9
20260507112605 14 298 0.0 9.7 0.00 0.00 0.00 34 1016.9
20260507104601 12 180 3.2 9.7 0.00 0.00 0.00 32 1016.9
20260507103754 12 200 6.4 9.7 0.00 0.00 0.00 33 1016.9
20260507103050 12 200 6.4 9.7 0.00 0.00 0.00 33 1016.9
20260507101530 12 228 3.2 14.5 0.00 0.00 0.00 35 1016.9
20260507100719 12 247 14.5 16.1 0.00 0.00 0.00 35 1016.8
20260507100236 12 247 14.5 16.1 0.00 0.00 0.00 35 1016.8
20260507095418 12 315 6.4 9.7 0.00 0.00 0.00 33 1016.8
20260507095157 12 315 6.4 9.7 0.00 0.00 0.00 33 1016.8
20260507093002 11 334 3.2 12.9 0.00 0.00 0.00 35 1016.8
20260507091453 12 149 4.8 14.5 0.00 0.00 0.00 36 1016.9
20260507090645 11 323 3.2 14.5 0.00 0.00 0.00 38 1017.0
20260507090153 11 323 3.2 14.5 0.00 0.00 0.00 38 1017.0
20260507084431 11 214 3.2 11.3 0.00 0.00 0.00 36 1017.1
20260507082930 10 206 4.8 12.9 0.00 0.00 0.00 36 1017.1
20260507082127 10 292 3.2 17.7 0.00 0.00 0.00 41 1017.0
20260507081429 10 292 3.2 17.7 0.00 0.00 0.00 41 1017.0
20260507081328 9 285 8.0 16.1 0.00 0.00 0.00 41 1017.0
20260507075928 9 285 8.0 16.1 0.00 0.00 0.00 41 1017.0
20260507074402 9 318 3.2 17.7 0.00 0.00 0.00 44 1016.9
20260507073600 8 269 8.0 14.5 0.00 0.00 0.00 44 1016.8
20260507073115 8 269 8.0 14.5 0.00 0.00 0.00 44 1016.8
20260507071354 8 226 3.2 16.1 0.00 0.00 0.00 45 1016.9
20260507065830 8 274 3.2 19.3 0.00 0.00 0.00 45 1016.9
20260507064330 7 231 8.0 12.9 0.00 0.00 0.00 47 1016.9
20260507063522 6 178 3.2 9.7 0.00 0.00 0.00 54 1017.0
20260507062826 6 178 3.2 9.7 0.00 0.00 0.00 54 1017.0
20260507062715 5 182 1.6 8.0 0.00 0.00 0.00 57 1016.9
20260507061519 5 182 1.6 8.0 0.00 0.00 0.00 57 1016.9
20260507061143 4 315 0.0 4.8 0.00 0.00 0.00 61 1016.9
20260507055801 4 315 0.0 4.8 0.00 0.00 0.00 61 1016.9
20260507054303 3 10 1.6 6.4 0.00 0.00 0.00 65 1016.9
20260507052751 3 273 1.6 6.4 0.00 0.00 0.00 63 1016.9
20260507051923 2 321 0.0 8.0 0.00 0.00 0.00 67 1016.8
20260507051229 2 321 0.0 8.0 0.00 0.00 0.00 67 1016.8
20260507045729 1 297 6.4 9.7 0.00 0.00 0.00 71 1016.6
20260507044202 0 238 4.8 9.7 0.00 0.00 0.00 69 1016.4
20260507043423 0 74 0.0 3.2 0.00 0.00 0.00 79 1016.4
20260507042701 0 74 0.0 3.2 0.00 0.00 0.00 79 1016.4
20260507041202 -1 37 0.0 3.2 0.00 0.00 0.00 79 1016.4
20260507035701 -1 212 0.0 3.2 0.00 0.00 0.00 79 1016.2
20260507034858 -1 34 0.0 3.2 0.00 0.00 0.00 78 1016.1
20260507034203 -1 34 0.0 3.2 0.00 0.00 0.00 78 1016.1
20260507032702 -1 236 1.6 3.2 0.00 0.00 0.00 80 1016.0
20260507031903 -1 202 0.0 1.6 0.00 0.00 0.00 79 1015.9
20260507031412 -1 202 0.0 1.6 0.00 0.00 0.00 79 1015.9
20260507030413 -1 340 0.0 3.2 0.00 0.00 0.00 77 1015.9
20260507025913 -1 340 0.0 3.2 0.00 0.00 0.00 77 1015.9
20260507024855 -1 310 0.0 3.2 0.00 0.00 0.00 78 1015.7
20260507024146 -1 310 0.0 3.2 0.00 0.00 0.00 78 1015.7
20260507022630 0 44 0.0 3.2 0.00 0.00 0.00 78 1015.6
20260507021101 0 117 1.6 3.2 0.00 0.00 0.00 75 1015.4
20260507015602 0 222 0.0 4.8 0.00 0.00 0.00 76 1015.3
20260507014059 0 300 0.0 1.6 0.00 0.00 0.00 76 1015.3
20260507013237 0 152 0.0 3.2 0.00 0.00 0.00 73 1015.3
20260507012529 0 152 0.0 3.2 0.00 0.00 0.00 73 1015.3
20260507011725 0 358 3.2 3.2 0.00 0.00 0.00 74 1015.1
20260507005529 0 180 0.0 3.2 0.00 0.00 0.00 71 1014.9
20260507004031 1 240 0.0 3.2 0.00 0.00 0.00 70 1014.9
20260507002531 1 193 0.0 4.8 0.00 0.00 0.00 72 1014.7
20260507001030 2 224 0.0 4.8 0.00 0.00 0.00 62 1014.6
20260506235529 2 328 0.0 6.4 0.00 0.00 0.00 62 1014.6
20260506235439 3 325 3.2 8.0 0.00 0.00 0.00 61 1014.4
20260506234241 3 325 3.2 8.0 0.00 0.00 0.00 61 1014.4